| time (UTC) | temp F | wind direction | speed MPH | gust MPH | rain 1hr in | rain 24hr in | rain mn in | humidity % | barometer mb |
| 20260510131235 | 57 | 324 | 3.0 | 4.0 | 0.00 | 0.00 | 0.00 | 71 | 1020.0 |
| 20260510130735 | 57 | 337 | 3.0 | 3.0 | 0.00 | 0.00 | 0.00 | 73 | 1020.0 |
| 20260510130235 | 56 | 337 | 3.0 | 3.0 | 0.00 | 0.00 | 0.00 | 73 | 1020.0 |
| 20260510125735 | 56 | 15 | 0.0 | 3.0 | 0.00 | 0.00 | 0.00 | 78 | 1020.0 |
| 20260510125236 | 56 | 346 | 1.0 | 2.0 | 0.00 | 0.00 | 0.00 | 76 | 1020.0 |
| 20260510124736 | 56 | 351 | 2.0 | 3.0 | 0.00 | 0.00 | 0.00 | 75 | 1020.0 |
| 20260510124235 | 56 | 30 | 0.0 | 2.0 | 0.00 | 0.00 | 0.00 | 81 | 1019.0 |
| 20260510123736 | 56 | 24 | 3.0 | 4.0 | 0.00 | 0.00 | 0.00 | 81 | 1019.0 |
| 20260510123236 | 56 | 327 | 2.0 | 3.0 | 0.00 | 0.00 | 0.00 | 84 | 1019.0 |
| 20260510122735 | 56 | 344 | 0.0 | 3.0 | 0.00 | 0.00 | 0.00 | 84 | 1019.0 |
| 20260510122235 | 56 | 21 | 3.0 | 3.0 | 0.00 | 0.00 | 0.00 | 83 | 1019.0 |
| 20260510121735 | 56 | 76 | 0.0 | 2.0 | 0.00 | 0.00 | 0.00 | 86 | 1019.0 |
| 20260510121236 | 56 | 242 | 0.0 | 0.0 | 0.00 | 0.00 | 0.00 | 88 | 1019.0 |
| 20260510120735 | 56 | 223 | 0.0 | 1.0 | 0.00 | 0.00 | 0.00 | 90 | 1019.0 |
| 20260510120235 | 56 | 227 | 0.0 | 2.0 | 0.00 | 0.00 | 0.00 | 88 | 1019.0 |
| 20260510115735 | 55 | 241 | 1.0 | 2.0 | 0.00 | 0.00 | 0.00 | 88 | 1019.0 |
| 20260510115236 | 55 | 238 | 0.0 | 2.0 | 0.00 | 0.00 | 0.00 | 88 | 1019.0 |
| 20260510114735 | 55 | 300 | 1.0 | 2.0 | 0.00 | 0.00 | 0.00 | 89 | 1019.0 |
| 20260510114235 | 55 | 300 | 1.0 | 2.0 | 0.00 | 0.00 | 0.00 | 90 | 1018.0 |
| 20260510113736 | 56 | 289 | 2.0 | 3.0 | 0.00 | 0.00 | 0.00 | 89 | 1018.0 |
| 20260510113235 | 56 | 295 | 0.0 | 2.0 | 0.00 | 0.00 | 0.00 | 91 | 1018.0 |
| 20260510112736 | 56 | 322 | 2.0 | 2.0 | 0.00 | 0.00 | 0.00 | 90 | 1018.0 |
| 20260510112235 | 56 | 343 | 2.0 | 3.0 | 0.00 | 0.00 | 0.00 | 91 | 1018.0 |
| 20260510111736 | 56 | 338 | 2.0 | 4.0 | 0.00 | 0.00 | 0.00 | 91 | 1017.0 |
| 20260510111235 | 56 | 269 | 2.0 | 3.0 | 0.00 | 0.00 | 0.00 | 91 | 1018.0 |
| 20260510110736 | 56 | 292 | 2.0 | 2.0 | 0.00 | 0.00 | 0.00 | 91 | 1018.0 |
| 20260510110235 | 56 | 308 | 1.0 | 3.0 | 0.00 | 0.00 | 0.00 | 92 | 1017.0 |
| 20260510105735 | 56 | 296 | 2.0 | 3.0 | 0.00 | 0.00 | 0.00 | 93 | 1017.0 |
| 20260510105235 | 56 | 310 | 2.0 | 3.0 | 0.00 | 0.00 | 0.00 | 94 | 1017.0 |
| 20260510104735 | 56 | 305 | 2.0 | 4.0 | 0.00 | 0.00 | 0.00 | 95 | 1017.0 |
| 20260510104235 | 56 | 329 | 2.0 | 3.0 | 0.00 | 0.00 | 0.00 | 95 | 1017.0 |
| 20260510103735 | 57 | 346 | 0.0 | 2.0 | 0.00 | 0.00 | 0.00 | 96 | 1017.0 |
| 20260510103235 | 57 | 328 | 2.0 | 3.0 | 0.00 | 0.00 | 0.00 | 96 | 1017.0 |
| 20260510102735 | 57 | 284 | 0.0 | 1.0 | 0.00 | 0.00 | 0.00 | 96 | 1017.0 |
| 20260510102235 | 57 | 309 | 2.0 | 2.0 | 0.00 | 0.00 | 0.00 | 96 | 1017.0 |
| 20260510101735 | 57 | 306 | 0.0 | 2.0 | 0.00 | 0.00 | 0.00 | 96 | 1016.0 |
| 20260510101237 | 57 | 307 | 0.0 | 3.0 | 0.00 | 0.00 | 0.00 | 96 | 1017.0 |
| 20260510100735 | 57 | 299 | 0.0 | 3.0 | 0.00 | 0.00 | 0.00 | 96 | 1017.0 |
| 20260510100235 | 57 | 296 | 2.0 | 3.0 | 0.00 | 0.00 | 0.00 | 96 | 1016.0 |
| 20260510095736 | 57 | 311 | 2.0 | 3.0 | 0.00 | 0.00 | 0.00 | 96 | 1016.0 |
| 20260510095236 | 57 | 319 | 3.0 | 3.0 | 0.00 | 0.00 | 0.00 | 96 | 1016.0 |
| 20260510094735 | 57 | 306 | 0.0 | 2.0 | 0.00 | 0.00 | 0.00 | 96 | 1016.0 |
| 20260510094235 | 57 | 344 | 1.0 | 2.0 | 0.00 | 0.00 | 0.00 | 96 | 1016.0 |
| 20260510093735 | 58 | 337 | 2.0 | 2.0 | 0.00 | 0.00 | 0.00 | 95 | 1016.0 |
| 20260510093236 | 57 | 282 | 0.0 | 1.0 | 0.00 | 0.00 | 0.00 | 95 | 1016.0 |
| 20260510092735 | 58 | 224 | 0.0 | 0.0 | 0.00 | 0.00 | 0.00 | 95 | 1016.0 |
| 20260510092236 | 58 | 224 | 0.0 | 0.0 | 0.00 | 0.00 | 0.00 | 95 | 1016.0 |
| 20260510091738 | 58 | 205 | 0.0 | 1.0 | 0.00 | 0.00 | 0.00 | 94 | 1016.0 |
| 20260510091235 | 58 | 315 | 0.0 | 0.0 | 0.00 | 0.00 | 0.00 | 94 | 1016.0 |
| 20260510090735 | 57 | 275 | 1.0 | 2.0 | 0.00 | 0.00 | 0.00 | 94 | 1016.0 |
| 20260510090235 | 58 | 25 | 0.0 | 0.0 | 0.00 | 0.00 | 0.00 | 94 | 1016.0 |
| 20260510085735 | 58 | 224 | 0.0 | 0.0 | 0.00 | 0.00 | 0.00 | 94 | 1016.0 |
| 20260510085236 | 58 | 224 | 0.0 | 0.0 | 0.00 | 0.00 | 0.00 | 94 | 1016.0 |
| 20260510084735 | 58 | 266 | 0.0 | 0.0 | 0.00 | 0.00 | 0.00 | 94 | 1015.0 |
| 20260510084235 | 58 | 217 | 0.0 | 0.0 | 0.00 | 0.00 | 0.00 | 94 | 1015.0 |
| 20260510083735 | 58 | 235 | 0.0 | 0.0 | 0.00 | 0.00 | 0.00 | 93 | 1016.0 |
| 20260510083236 | 58 | 309 | 0.0 | 0.0 | 0.00 | 0.00 | 0.00 | 93 | 1015.0 |
| 20260510082735 | 58 | 224 | 0.0 | 0.0 | 0.00 | 0.00 | 0.00 | 93 | 1015.0 |
| 20260510082236 | 58 | 135 | 0.0 | 0.0 | 0.00 | 0.00 | 0.00 | 93 | 1015.0 |
| 20260510081735 | 58 | 135 | 0.0 | 0.0 | 0.00 | 0.00 | 0.00 | 93 | 1015.0 |
| 20260510081235 | 58 | 256 | 0.0 | 0.0 | 0.00 | 0.00 | 0.00 | 93 | 1015.0 |
| 20260510080736 | 59 | 229 | 0.0 | 0.0 | 0.00 | 0.00 | 0.00 | 93 | 1015.0 |
| 20260510080236 | 58 | 224 | 0.0 | 0.0 | 0.00 | 0.00 | 0.00 | 93 | 1015.0 |
| 20260510075735 | 59 | 315 | 0.0 | 0.0 | 0.00 | 0.00 | 0.00 | 93 | 1014.0 |
| 20260510075236 | 59 | 322 | 0.0 | 0.0 | 0.00 | 0.00 | 0.00 | 93 | 1014.0 |
| 20260510074735 | 59 | 9 | 0.0 | 1.0 | 0.00 | 0.00 | 0.00 | 92 | 1015.0 |
| 20260510074236 | 59 | 230 | 0.0 | 0.0 | 0.00 | 0.00 | 0.00 | 92 | 1015.0 |
| 20260510073735 | 59 | 224 | 0.0 | 0.0 | 0.00 | 0.00 | 0.00 | 92 | 1014.0 |
| 20260510073235 | 59 | 269 | 0.0 | 2.0 | 0.00 | 0.00 | 0.00 | 92 | 1014.0 |
| 20260510072735 | 60 | 269 | 0.0 | 0.0 | 0.00 | 0.00 | 0.00 | 90 | 1014.0 |
| 20260510072235 | 60 | 253 | 0.0 | 0.0 | 0.00 | 0.00 | 0.00 | 89 | 1014.0 |
| 20260510071736 | 60 | 138 | 0.0 | 1.0 | 0.00 | 0.00 | 0.00 | 89 | 1014.0 |
| 20260510071235 | 60 | 5 | 0.0 | 2.0 | 0.00 | 0.00 | 0.00 | 90 | 1014.0 |
| 20260510070735 | 60 | 336 | 0.0 | 2.0 | 0.00 | 0.00 | 0.00 | 90 | 1014.0 |
| 20260510070235 | 60 | 53 | 1.0 | 3.0 | 0.00 | 0.00 | 0.00 | 91 | 1014.0 |
| 20260510065735 | 60 | 334 | 0.0 | 2.0 | 0.00 | 0.00 | 0.00 | 91 | 1014.0 |
| 20260510065235 | 60 | 44 | 0.0 | 3.0 | 0.00 | 0.00 | 0.00 | 92 | 1014.0 |
| 20260510064735 | 60 | 32 | 0.0 | 2.0 | 0.00 | 0.00 | 0.00 | 92 | 1014.0 |
| 20260510064235 | 60 | 246 | 0.0 | 0.0 | 0.00 | 0.00 | 0.00 | 93 | 1014.0 |
| 20260510063735 | 60 | 316 | 1.0 | 2.0 | 0.00 | 0.00 | 0.00 | 93 | 1014.0 |
| 20260510063235 | 61 | 330 | 2.0 | 2.0 | 0.00 | 0.00 | 0.00 | 93 | 1014.0 |
| 20260510062738 | 61 | 300 | 1.0 | 1.0 | 0.00 | 0.00 | 0.00 | 92 | 1014.0 |
| 20260510062236 | 61 | 284 | 2.0 | 2.0 | 0.00 | 0.00 | 0.00 | 91 | 1014.0 |
| 20260510061735 | 61 | 333 | 0.0 | 3.0 | 0.00 | 0.00 | 0.00 | 91 | 1014.0 |
| 20260510061235 | 61 | 264 | 1.0 | 3.0 | 0.00 | 0.00 | 0.00 | 90 | 1014.0 |
| 20260510060735 | 61 | 257 | 3.0 | 5.0 | 0.00 | 0.00 | 0.00 | 90 | 1014.0 |
| 20260510060235 | 62 | 298 | 2.0 | 5.0 | 0.00 | 0.00 | 0.00 | 88 | 1013.0 |
| 20260510055735 | 62 | 350 | 0.0 | 1.0 | 0.00 | 0.00 | 0.00 | 85 | 1013.0 |
| 20260510055235 | 62 | 299 | 0.0 | 2.0 | 0.00 | 0.00 | 0.00 | 84 | 1013.0 |
| 20260510054735 | 62 | 142 | 0.0 | 1.0 | 0.00 | 0.00 | 0.00 | 84 | 1013.0 |
| 20260510054235 | 62 | 265 | 1.0 | 3.0 | 0.00 | 0.00 | 0.00 | 84 | 1013.0 |
| 20260510053735 | 62 | 259 | 2.0 | 3.0 | 0.00 | 0.00 | 0.00 | 86 | 1014.0 |
| 20260510053235 | 61 | 246 | 2.0 | 3.0 | 0.00 | 0.00 | 0.00 | 87 | 1014.0 |
| 20260510052736 | 61 | 258 | 1.0 | 2.0 | 0.00 | 0.00 | 0.00 | 90 | 1013.0 |
| 20260510052235 | 61 | 297 | 2.0 | 2.0 | 0.00 | 0.00 | 0.00 | 89 | 1013.0 |
| 20260510051738 | 61 | 306 | 0.0 | 1.0 | 0.00 | 0.00 | 0.00 | 88 | 1013.0 |
| 20260510051235 | 61 | 296 | 1.0 | 3.0 | 0.00 | 0.00 | 0.00 | 89 | 1014.0 |
| 20260510050735 | 61 | 22 | 0.0 | 2.0 | 0.00 | 0.00 | 0.00 | 90 | 1014.0 |
| 20260510050235 | 61 | 321 | 0.0 | 2.0 | 0.00 | 0.00 | 0.00 | 90 | 1014.0 |
| 20260510045735 | 61 | 335 | 2.0 | 3.0 | 0.00 | 0.00 | 0.00 | 90 | 1014.0 |
| 20260510045235 | 61 | 337 | 4.0 | 5.0 | 0.00 | 0.00 | 0.00 | 89 | 1014.0 |
| 20260510044735 | 61 | 350 | 2.0 | 3.0 | 0.00 | 0.00 | 0.00 | 88 | 1014.0 |
| 20260510044235 | 61 | 306 | 4.0 | 5.0 | 0.00 | 0.00 | 0.00 | 87 | 1014.0 |
| 20260510043735 | 61 | 323 | 6.0 | 6.0 | 0.00 | 0.00 | 0.00 | 88 | 1014.0 |
| 20260510043237 | 61 | 343 | 3.0 | 5.0 | 0.00 | 0.00 | 0.00 | 87 | 1013.0 |
| 20260510042735 | 62 | 326 | 3.0 | 5.0 | 0.00 | 0.00 | 0.00 | 87 | 1013.0 |
| 20260510042235 | 62 | 72 | 4.0 | 6.0 | 0.00 | 0.00 | 0.00 | 88 | 1013.0 |
| 20260510041736 | 62 | 315 | 3.0 | 5.0 | 0.00 | 0.00 | 0.00 | 87 | 1013.0 |
| 20260510041236 | 62 | 325 | 2.0 | 6.0 | 0.00 | 0.00 | 0.00 | 86 | 1013.0 |
| 20260510040735 | 62 | 345 | 6.0 | 6.0 | 0.00 | 0.00 | 0.00 | 85 | 1013.0 |
| 20260510040235 | 62 | 308 | 2.0 | 6.0 | 0.00 | 0.00 | 0.00 | 84 | 1013.0 |
| 20260510035735 | 62 | 334 | 6.0 | 10.0 | 0.00 | 0.00 | 0.00 | 83 | 1013.0 |
| 20260510035235 | 63 | 329 | 7.0 | 9.0 | 0.00 | 0.00 | 0.00 | 82 | 1013.0 |
| 20260510034735 | 63 | 325 | 5.0 | 8.0 | 0.00 | 0.00 | 0.00 | 81 | 1014.0 |
| 20260510034235 | 64 | 318 | 8.0 | 11.0 | 0.00 | 0.00 | 0.00 | 79 | 1014.0 |
| 20260510033735 | 65 | 316 | 9.0 | 11.0 | 0.00 | 0.00 | 0.00 | 74 | 1013.0 |
| 20260510033235 | 68 | 321 | 8.0 | 12.0 | 0.00 | 0.00 | 0.00 | 64 | 1013.0 |
| 20260510032740 | 68 | 254 | 11.0 | 17.0 | 0.00 | 0.00 | 0.00 | 60 | 1013.0 |
| 20260510032235 | 69 | 263 | 2.0 | 2.0 | 0.00 | 0.00 | 0.00 | 56 | 1012.0 |
| 20260510031735 | 69 | 258 | 1.0 | 1.0 | 0.00 | 0.00 | 0.00 | 54 | 1012.0 |
| 20260510031236 | 69 | 224 | 0.0 | 1.0 | 0.00 | 0.00 | 0.00 | 53 | 1012.0 |
| 20260510030735 | 69 | 244 | 1.0 | 1.0 | 0.00 | 0.00 | 0.00 | 53 | 1011.0 |
| 20260510030235 | 70 | 217 | 0.0 | 1.0 | 0.00 | 0.00 | 0.00 | 53 | 1011.0 |
| 20260510025735 | 70 | 195 | 0.0 | 1.0 | 0.00 | 0.00 | 0.00 | 51 | 1011.0 |
| 20260510025235 | 70 | 219 | 0.0 | 1.0 | 0.00 | 0.00 | 0.00 | 51 | 1011.0 |
| 20260510024735 | 70 | 224 | 0.0 | 1.0 | 0.00 | 0.00 | 0.00 | 51 | 1011.0 |
| 20260510024235 | 70 | 219 | 0.0 | 1.0 | 0.00 | 0.00 | 0.00 | 51 | 1011.0 |
| 20260510023736 | 70 | 224 | 0.0 | 1.0 | 0.00 | 0.00 | 0.00 | 50 | 1011.0 |
| 20260510023235 | 70 | 224 | 0.0 | 1.0 | 0.00 | 0.00 | 0.00 | 50 | 1011.0 |
| 20260510022735 | 70 | 217 | 0.0 | 1.0 | 0.00 | 0.00 | 0.00 | 49 | 1011.0 |
| 20260510022236 | 71 | 224 | 0.0 | 1.0 | 0.00 | 0.00 | 0.00 | 48 | 1011.0 |
| 20260510021735 | 71 | 217 | 0.0 | 1.0 | 0.00 | 0.00 | 0.00 | 47 | 1011.0 |
| 20260510021235 | 71 | 230 | 0.0 | 1.0 | 0.00 | 0.00 | 0.00 | 47 | 1011.0 |
| 20260510020735 | 71 | 219 | 1.0 | 1.0 | 0.00 | 0.00 | 0.00 | 46 | 1010.0 |
| 20260510020235 | 71 | 230 | 0.0 | 1.0 | 0.00 | 0.00 | 0.00 | 46 | 1010.0 |
| 20260510015735 | 71 | 165 | 0.0 | 1.0 | 0.00 | 0.00 | 0.00 | 46 | 1010.0 |
| 20260510015235 | 71 | 246 | 0.0 | 1.0 | 0.00 | 0.00 | 0.00 | 47 | 1010.0 |
| 20260510014735 | 71 | 205 | 0.0 | 1.0 | 0.00 | 0.00 | 0.00 | 46 | 1010.0 |
| 20260510014235 | 71 | 220 | 0.0 | 1.0 | 0.00 | 0.00 | 0.00 | 46 | 1010.0 |
| 20260510013735 | 71 | 230 | 0.0 | 0.0 | 0.00 | 0.00 | 0.00 | 48 | 1010.0 |
| 20260510013235 | 71 | 224 | 0.0 | 0.0 | 0.00 | 0.00 | 0.00 | 48 | 1010.0 |
| 20260510012735 | 71 | 239 | 0.0 | 1.0 | 0.00 | 0.00 | 0.00 | 49 | 1010.0 |
| 20260510012235 | 72 | 217 | 0.0 | 1.0 | 0.00 | 0.00 | 0.00 | 47 | 1010.0 |
| 20260510011735 | 73 | 238 | 0.0 | 1.0 | 0.00 | 0.00 | 0.00 | 47 | 1010.0 |
| 20260510011235 | 73 | 284 | 0.0 | 1.0 | 0.00 | 0.00 | 0.00 | 46 | 1010.0 |
| 20260510010735 | 73 | 237 | 0.0 | 1.0 | 0.00 | 0.00 | 0.00 | 46 | 1010.0 |
| 20260510010236 | 74 | 224 | 0.0 | 1.0 | 0.00 | 0.00 | 0.00 | 44 | 1010.0 |
| 20260510005735 | 74 | 248 | 0.0 | 1.0 | 0.00 | 0.00 | 0.00 | 43 | 1010.0 |
| 20260510005235 | 75 | 246 | 0.0 | 1.0 | 0.00 | 0.00 | 0.00 | 44 | 1010.0 |
| 20260510004735 | 75 | 234 | 0.0 | 1.0 | 0.00 | 0.00 | 0.00 | 41 | 1010.0 |
| 20260510004235 | 76 | 251 | 1.0 | 2.0 | 0.00 | 0.00 | 0.00 | 40 | 1010.0 |
| 20260510003735 | 76 | 231 | 0.0 | 1.0 | 0.00 | 0.00 | 0.00 | 41 | 1010.0 |
| 20260510003235 | 77 | 238 | 1.0 | 1.0 | 0.00 | 0.00 | 0.00 | 39 | 1009.0 |
| 20260510002735 | 77 | 242 | 0.0 | 2.0 | 0.00 | 0.00 | 0.00 | 39 | 1009.0 |
| 20260510002235 | 78 | 269 | 0.0 | 1.0 | 0.00 | 0.00 | 0.00 | 37 | 1010.0 |
| 20260510001735 | 78 | 251 | 0.0 | 1.0 | 0.00 | 0.00 | 0.00 | 38 | 1009.0 |
| 20260510001236 | 79 | 254 | 1.0 | 2.0 | 0.00 | 0.00 | 0.00 | 36 | 1009.0 |
| 20260510000735 | 79 | 278 | 1.0 | 2.0 | 0.00 | 0.00 | 0.00 | 38 | 1009.0 |
| 20260510000236 | 79 | 275 | 2.0 | 2.0 | 0.00 | 0.00 | 0.00 | 36 | 1009.0 |
| 20260509235735 | 80 | 265 | 2.0 | 3.0 | 0.00 | 0.00 | 0.00 | 35 | 1009.0 |
| 20260509235235 | 80 | 272 | 2.0 | 3.0 | 0.00 | 0.00 | 0.00 | 36 | 1009.0 |
| 20260509234735 | 80 | 258 | 2.0 | 2.0 | 0.00 | 0.00 | 0.00 | 35 | 1009.0 |
| 20260509234241 | 80 | 260 | 2.0 | 3.0 | 0.00 | 0.00 | 0.00 | 34 | 1009.0 |
| 20260509233735 | 80 | 250 | 3.0 | 4.0 | 0.00 | 0.00 | 0.00 | 35 | 1009.0 |
| 20260509233235 | 80 | 249 | 2.0 | 3.0 | 0.00 | 0.00 | 0.00 | 35 | 1009.0 |
| 20260509232735 | 80 | 276 | 2.0 | 5.0 | 0.00 | 0.00 | 0.00 | 34 | 1009.0 |
| 20260509232236 | 80 | 262 | 3.0 | 4.0 | 0.00 | 0.00 | 0.00 | 32 | 1009.0 |
| 20260509231735 | 80 | 257 | 2.0 | 3.0 | 0.00 | 0.00 | 0.00 | 34 | 1009.0 |
| 20260509231235 | 81 | 255 | 3.0 | 5.0 | 0.00 | 0.00 | 0.00 | 32 | 1009.0 |
| 20260509230735 | 80 | 269 | 4.0 | 5.0 | 0.00 | 0.00 | 0.00 | 32 | 1009.0 |
| 20260509230235 | 81 | 243 | 3.0 | 5.0 | 0.00 | 0.00 | 0.00 | 34 | 1009.0 |
| 20260509225736 | 81 | 267 | 4.0 | 5.0 | 0.00 | 0.00 | 0.00 | 33 | 1009.0 |
| 20260509225235 | 81 | 251 | 2.0 | 4.0 | 0.00 | 0.00 | 0.00 | 33 | 1009.0 |
| 20260509224735 | 81 | 276 | 2.0 | 5.0 | 0.00 | 0.00 | 0.00 | 34 | 1009.0 |
| 20260509224235 | 81 | 247 | 2.0 | 5.0 | 0.00 | 0.00 | 0.00 | 32 | 1009.0 |
| 20260509223735 | 81 | 231 | 2.0 | 4.0 | 0.00 | 0.00 | 0.00 | 33 | 1009.0 |
| 20260509223235 | 80 | 239 | 2.0 | 3.0 | 0.00 | 0.00 | 0.00 | 35 | 1009.0 |
| 20260509222735 | 81 | 267 | 3.0 | 6.0 | 0.00 | 0.00 | 0.00 | 32 | 1009.0 |
| 20260509222236 | 81 | 290 | 5.0 | 5.0 | 0.00 | 0.00 | 0.00 | 34 | 1009.0 |
| 20260509221735 | 81 | 274 | 3.0 | 5.0 | 0.00 | 0.00 | 0.00 | 32 | 1009.0 |
| 20260509221235 | 81 | 259 | 3.0 | 4.0 | 0.00 | 0.00 | 0.00 | 34 | 1009.0 |
| 20260509220736 | 81 | 276 | 2.0 | 5.0 | 0.00 | 0.00 | 0.00 | 35 | 1009.0 |
| 20260509220236 | 80 | 305 | 4.0 | 5.0 | 0.00 | 0.00 | 0.00 | 36 | 1009.0 |
| 20260509215735 | 81 | 240 | 2.0 | 5.0 | 0.00 | 0.00 | 0.00 | 35 | 1010.0 |
| 20260509215235 | 80 | 253 | 4.0 | 5.0 | 0.00 | 0.00 | 0.00 | 36 | 1009.0 |
| 20260509214735 | 81 | 250 | 4.0 | 4.0 | 0.00 | 0.00 | 0.00 | 36 | 1009.0 |
| 20260509214235 | 81 | 277 | 4.0 | 4.0 | 0.00 | 0.00 | 0.00 | 37 | 1009.0 |
| 20260509213736 | 79 | 255 | 4.0 | 5.0 | 0.00 | 0.00 | 0.00 | 37 | 1009.0 |
| 20260509213235 | 80 | 254 | 3.0 | 4.0 | 0.00 | 0.00 | 0.00 | 36 | 1009.0 |
| 20260509212735 | 81 | 258 | 2.0 | 5.0 | 0.00 | 0.00 | 0.00 | 35 | 1009.0 |
| 20260509212235 | 81 | 266 | 3.0 | 5.0 | 0.00 | 0.00 | 0.00 | 37 | 1009.0 |
| 20260509211735 | 81 | 246 | 4.0 | 4.0 | 0.00 | 0.00 | 0.00 | 36 | 1009.0 |
| 20260509211235 | 81 | 282 | 4.0 | 5.0 | 0.00 | 0.00 | 0.00 | 36 | 1010.0 |
| 20260509210735 | 80 | 264 | 2.0 | 7.0 | 0.00 | 0.00 | 0.00 | 35 | 1010.0 |
| 20260509210236 | 80 | 268 | 4.0 | 5.0 | 0.00 | 0.00 | 0.00 | 36 | 1010.0 |
| 20260509205735 | 80 | 246 | 3.0 | 4.0 | 0.00 | 0.00 | 0.00 | 37 | 1010.0 |
| 20260509205235 | 79 | 269 | 1.0 | 6.0 | 0.00 | 0.00 | 0.00 | 35 | 1010.0 |
| 20260509204735 | 80 | 245 | 5.0 | 5.0 | 0.00 | 0.00 | 0.00 | 36 | 1010.0 |
| 20260509204236 | 79 | 238 | 3.0 | 4.0 | 0.00 | 0.00 | 0.00 | 37 | 1010.0 |
| 20260509203735 | 79 | 272 | 3.0 | 6.0 | 0.00 | 0.00 | 0.00 | 37 | 1010.0 |
| 20260509203235 | 79 | 231 | 3.0 | 5.0 | 0.00 | 0.00 | 0.00 | 37 | 1010.0 |
| 20260509202735 | 79 | 280 | 3.0 | 4.0 | 0.00 | 0.00 | 0.00 | 38 | 1010.0 |
| 20260509202235 | 79 | 247 | 3.0 | 6.0 | 0.00 | 0.00 | 0.00 | 38 | 1010.0 |
| 20260509201735 | 78 | 254 | 3.0 | 5.0 | 0.00 | 0.00 | 0.00 | 38 | 1010.0 |
| 20260509201235 | 79 | 263 | 5.0 | 7.0 | 0.00 | 0.00 | 0.00 | 37 | 1010.0 |
| 20260509200735 | 78 | 250 | 3.0 | 5.0 | 0.00 | 0.00 | 0.00 | 37 | 1010.0 |
| 20260509200235 | 77 | 258 | 2.0 | 5.0 | 0.00 | 0.00 | 0.00 | 39 | 1010.0 |
| 20260509195735 | 78 | 255 | 4.0 | 6.0 | 0.00 | 0.00 | 0.00 | 41 | 1010.0 |
| 20260509195236 | 78 | 272 | 4.0 | 5.0 | 0.00 | 0.00 | 0.00 | 38 | 1010.0 |
| 20260509194735 | 77 | 272 | 4.0 | 4.0 | 0.00 | 0.00 | 0.00 | 42 | 1010.0 |
| 20260509194236 | 78 | 286 | 2.0 | 5.0 | 0.00 | 0.00 | 0.00 | 39 | 1010.0 |
| 20260509193739 | 78 | 279 | 3.0 | 7.0 | 0.00 | 0.00 | 0.00 | 40 | 1010.0 |
| 20260509193235 | 78 | 264 | 3.0 | 4.0 | 0.00 | 0.00 | 0.00 | 41 | 1010.0 |
| 20260509192736 | 78 | 253 | 2.0 | 4.0 | 0.00 | 0.00 | 0.00 | 39 | 1010.0 |
| 20260509192236 | 78 | 298 | 4.0 | 4.0 | 0.00 | 0.00 | 0.00 | 42 | 1010.0 |
| 20260509191735 | 77 | 261 | 5.0 | 5.0 | 0.00 | 0.00 | 0.00 | 43 | 1010.0 |
| 20260509191235 | 78 | 260 | 3.0 | 6.0 | 0.00 | 0.00 | 0.00 | 42 | 1010.0 |
| 20260509190735 | 77 | 255 | 3.0 | 5.0 | 0.00 | 0.00 | 0.00 | 44 | 1011.0 |
| 20260509190235 | 77 | 277 | 4.0 | 6.0 | 0.00 | 0.00 | 0.00 | 43 | 1011.0 |
| 20260509185736 | 77 | 251 | 5.0 | 7.0 | 0.00 | 0.00 | 0.00 | 44 | 1011.0 |
| 20260509185235 | 77 | 268 | 2.0 | 5.0 | 0.00 | 0.00 | 0.00 | 45 | 1011.0 |
| 20260509184735 | 76 | 260 | 3.0 | 7.0 | 0.00 | 0.00 | 0.00 | 42 | 1010.0 |
| 20260509184236 | 76 | 272 | 6.0 | 7.0 | 0.00 | 0.00 | 0.00 | 43 | 1011.0 |
| 20260509183735 | 76 | 251 | 3.0 | 7.0 | 0.00 | 0.00 | 0.00 | 43 | 1011.0 |
| 20260509183236 | 76 | 334 | 5.0 | 9.0 | 0.00 | 0.00 | 0.00 | 45 | 1011.0 |
| 20260509182735 | 76 | 271 | 3.0 | 6.0 | 0.00 | 0.00 | 0.00 | 45 | 1011.0 |
| 20260509182235 | 75 | 253 | 3.0 | 8.0 | 0.00 | 0.00 | 0.00 | 45 | 1011.0 |
| 20260509181737 | 75 | 273 | 4.0 | 5.0 | 0.00 | 0.00 | 0.00 | 47 | 1011.0 |
| 20260509181236 | 75 | 236 | 3.0 | 7.0 | 0.00 | 0.00 | 0.00 | 46 | 1011.0 |
| 20260509180735 | 75 | 255 | 2.0 | 6.0 | 0.00 | 0.00 | 0.00 | 48 | 1011.0 |
| 20260509180235 | 75 | 261 | 3.0 | 4.0 | 0.00 | 0.00 | 0.00 | 47 | 1011.0 |
| 20260509175735 | 74 | 228 | 5.0 | 6.0 | 0.00 | 0.00 | 0.00 | 49 | 1011.0 |
| 20260509175237 | 74 | 252 | 4.0 | 7.0 | 0.00 | 0.00 | 0.00 | 49 | 1011.0 |
| 20260509174735 | 73 | 296 | 4.0 | 6.0 | 0.00 | 0.00 | 0.00 | 50 | 1011.0 |
| 20260509174235 | 73 | 232 | 5.0 | 6.0 | 0.00 | 0.00 | 0.00 | 50 | 1011.0 |
| 20260509173735 | 73 | 228 | 3.0 | 6.0 | 0.00 | 0.00 | 0.00 | 51 | 1011.0 |
| 20260509173235 | 73 | 265 | 3.0 | 5.0 | 0.00 | 0.00 | 0.00 | 51 | 1011.0 |
| 20260509172736 | 73 | 290 | 4.0 | 6.0 | 0.00 | 0.00 | 0.00 | 55 | 1011.0 |
| 20260509172235 | 72 | 250 | 1.0 | 3.0 | 0.00 | 0.00 | 0.00 | 54 | 1011.0 |
| 20260509171735 | 72 | 300 | 4.0 | 5.0 | 0.00 | 0.00 | 0.00 | 53 | 1012.0 |
| 20260509171236 | 72 | 262 | 4.0 | 7.0 | 0.00 | 0.00 | 0.00 | 55 | 1012.0 |
| 20260509170246 | 71 | 239 | 3.0 | 4.0 | 0.00 | 0.00 | 0.00 | 58 | 1012.0 |
| 20260509165736 | 70 | 266 | 2.0 | 5.0 | 0.00 | 0.00 | 0.00 | 57 | 1012.0 |
| 20260509165238 | 70 | 279 | 3.0 | 6.0 | 0.00 | 0.00 | 0.00 | 58 | 1012.0 |
| 20260509164735 | 70 | 275 | 4.0 | 5.0 | 0.00 | 0.00 | 0.00 | 59 | 1012.0 |
| 20260509164235 | 69 | 266 | 0.0 | 4.0 | 0.00 | 0.00 | 0.00 | 61 | 1012.0 |
| 20260509163735 | 69 | 234 | 3.0 | 5.0 | 0.00 | 0.00 | 0.00 | 60 | 1012.0 |
| 20260509163235 | 69 | 240 | 1.0 | 4.0 | 0.00 | 0.00 | 0.00 | 62 | 1012.0 |
| 20260509162735 | 69 | 264 | 2.0 | 5.0 | 0.00 | 0.00 | 0.00 | 61 | 1012.0 |
| 20260509162235 | 68 | 265 | 2.0 | 5.0 | 0.00 | 0.00 | 0.00 | 64 | 1012.0 |
| 20260509161735 | 68 | 255 | 3.0 | 4.0 | 0.00 | 0.00 | 0.00 | 66 | 1012.0 |
| 20260509161238 | 68 | 277 | 3.0 | 5.0 | 0.00 | 0.00 | 0.00 | 65 | 1012.0 |
| 20260509160735 | 68 | 240 | 1.0 | 4.0 | 0.00 | 0.00 | 0.00 | 67 | 1012.0 |
| 20260509160235 | 67 | 262 | 5.0 | 5.0 | 0.00 | 0.00 | 0.00 | 67 | 1012.0 |
| 20260509155735 | 67 | 220 | 1.0 | 3.0 | 0.00 | 0.00 | 0.00 | 68 | 1012.0 |
| 20260509155235 | 66 | 244 | 2.0 | 3.0 | 0.00 | 0.00 | 0.00 | 68 | 1012.0 |
| 20260509154735 | 65 | 245 | 1.0 | 2.0 | 0.00 | 0.00 | 0.00 | 72 | 1012.0 |
| 20260509154236 | 66 | 237 | 2.0 | 4.0 | 0.00 | 0.00 | 0.00 | 72 | 1012.0 |
| 20260509153735 | 65 | 265 | 3.0 | 4.0 | 0.00 | 0.00 | 0.00 | 72 | 1012.0 |
| 20260509153235 | 65 | 269 | 3.0 | 4.0 | 0.00 | 0.00 | 0.00 | 73 | 1012.0 |
| 20260509152735 | 65 | 257 | 3.0 | 5.0 | 0.00 | 0.00 | 0.00 | 73 | 1012.0 |
| 20260509152235 | 63 | 274 | 5.0 | 5.0 | 0.00 | 0.00 | 0.00 | 74 | 1012.0 |
| 20260509151735 | 63 | 300 | 2.0 | 3.0 | 0.00 | 0.00 | 0.00 | 76 | 1012.0 |
| 20260509151236 | 62 | 227 | 0.0 | 4.0 | 0.00 | 0.00 | 0.00 | 78 | 1012.0 |
| 20260509150735 | 63 | 256 | 3.0 | 5.0 | 0.00 | 0.00 | 0.00 | 76 | 1012.0 |
| 20260509150235 | 62 | 240 | 1.0 | 3.0 | 0.00 | 0.00 | 0.00 | 79 | 1012.0 |
| 20260509145735 | 61 | 215 | 0.0 | 2.0 | 0.00 | 0.00 | 0.00 | 79 | 1012.0 |
| 20260509145236 | 62 | 228 | 3.0 | 6.0 | 0.00 | 0.00 | 0.00 | 78 | 1012.0 |
| 20260509144735 | 61 | 263 | 2.0 | 4.0 | 0.00 | 0.00 | 0.00 | 79 | 1012.0 |
| 20260509144235 | 61 | 228 | 0.0 | 5.0 | 0.00 | 0.00 | 0.00 | 81 | 1011.0 |
| 20260509143738 | 60 | 224 | 0.0 | 3.0 | 0.00 | 0.00 | 0.00 | 82 | 1012.0 |
| 20260509143235 | 61 | 271 | 3.0 | 4.0 | 0.00 | 0.00 | 0.00 | 83 | 1012.0 |
| 20260509142736 | 61 | 249 | 2.0 | 4.0 | 0.00 | 0.00 | 0.00 | 82 | 1012.0 |
| 20260509142235 | 60 | 289 | 3.0 | 4.0 | 0.00 | 0.00 | 0.00 | 83 | 1012.0 |
| 20260509141735 | 60 | 269 | 2.0 | 4.0 | 0.00 | 0.00 | 0.00 | 84 | 1011.0 |
| 20260509141235 | 59 | 262 | 2.0 | 3.0 | 0.00 | 0.00 | 0.00 | 84 | 1012.0 |
| 20260509140736 | 60 | 254 | 3.0 | 4.0 | 0.00 | 0.00 | 0.00 | 85 | 1012.0 |
| 20260509140235 | 59 | 227 | 1.0 | 3.0 | 0.00 | 0.00 | 0.00 | 86 | 1011.0 |
| 20260509135735 | 58 | 277 | 1.0 | 3.0 | 0.00 | 0.00 | 0.00 | 86 | 1012.0 |
| 20260509135235 | 59 | 278 | 3.0 | 4.0 | 0.00 | 0.00 | 0.00 | 86 | 1011.0 |
| 20260509134735 | 59 | 239 | 1.0 | 3.0 | 0.00 | 0.00 | 0.00 | 87 | 1011.0 |
| 20260509134235 | 58 | 300 | 2.0 | 3.0 | 0.00 | 0.00 | 0.00 | 88 | 1011.0 |
| 20260509133735 | 58 | 278 | 3.0 | 6.0 | 0.00 | 0.00 | 0.00 | 89 | 1011.0 |
| 20260509133235 | 57 | 0 | 4.0 | 5.0 | 0.00 | 0.00 | 0.00 | 90 | 1011.0 |
| 20260509132735 | 58 | 273 | 2.0 | 5.0 | 0.00 | 0.00 | 0.00 | 91 | 1011.0 |
| 20260509132235 | 58 | 314 | 3.0 | 6.0 | 0.00 | 0.00 | 0.00 | 91 | 1011.0 |
| 20260509131735 | 57 | 113 | 2.0 | 5.0 | 0.00 | 0.00 | 0.00 | 91 | 1011.0 |